Home > Time Zones > World Clock > Weather > India > Sikar > Past weeks

Flag for India Weather past 2 weeks in Sikar, Rajasthan, India

Now
61 °F

Passing clouds.


Feels Like: 61 °F
Forecast: 58 / 77 °F
Wind: 13 mph from East

Location: Jaipur / Sanganer

Current Time: Feb 2, 2015 at 2:02:34 AM

Latest Report: Feb 2, 2015 at 1:00 AM


Visibility: 1 mi

Pressure: 30.01 "Hg

Humidity: 68%

Dew point: 50 °F

Location of SikarLocation

Historic Weather in Sikar — Graph

°F

Sikar temperature yesterday

Maximum temperature yesterday: 73 °F (at 2:00 PM)
Minimum temperature yesterday: 52 °F (at 4:00 AM)
Average temperature yesterday: 63 °F

Past Weeks' High & Low Weather Summary

 TemperatureHumidityPressure
High73 °F (Jan 31, 4:00 PM)100% (Jan 18, 6:30 AM)30.24 "Hg (Jan 18, 6:30 AM)
Low43 °F (Jan 28, 7:00 AM)21% (Jan 28, 2:00 PM)29.98 "Hg (Feb 1, 3:30 PM)
Average58 °F71%30.11 "Hg
* Reported Jan 17 11:30 PM — Midnight between Feb 1 and Feb 2, Sikar, Weather by CustomWeather, © 2014

Note: Actual official high and low records may vary slightly from our data, if they occured in-between our weather recording intervals... More about our weather records

Advertising

Sikar weather history for previous 24 hours

 ConditionsComfort  
Time TempWeatherWind HumidityBarometerVisibility
12:00 AM
Feb 2
63 °FPassing clouds.10 mph64%30.04 "Hg1 mi
11:30 PM
Feb 1
63 °FPassing clouds.10 mph64%30.04 "Hg1 mi
11:00 PM63 °FPassing clouds.10 mph64%30.04 "Hg1 mi
10:30 PM63 °FPassing clouds.10 mph64%30.04 "Hg1 mi
9:30 PM63 °FPassing clouds.12 mph64%30.04 "Hg2 mi
9:00 PM64 °FPassing clouds.9 mph52%30.04 "Hg2 mi
7:30 PM64 °FPassing clouds.6 mph49%30.01 "Hg2 mi
7:00 PM64 °FPassing clouds.6 mph52%30.01 "Hg2 mi
6:00 PM68 °FScattered clouds.7 mph46%29.98 "Hg4 mi
5:30 PM70 °FScattered clouds.7 mph40%29.98 "Hg4 mi
5:00 PM72 °FScattered clouds.8 mph36%29.98 "Hg4 mi
4:30 PM72 °FScattered clouds.10 mph33%29.98 "Hg4 mi
4:00 PM72 °FScattered clouds.12 mph31%29.98 "Hg4 mi
3:30 PM73 °FScattered clouds.10 mph31%29.98 "Hg4 mi
3:00 PM72 °FScattered clouds.9 mph31%30.01 "Hg4 mi
2:30 PM72 °FScattered clouds.9 mph31%30.01 "Hg4 mi
2:00 PM73 °FScattered clouds.10 mph31%30.01 "Hg4 mi
1:30 PM72 °FScattered clouds.8 mph36%30.04 "Hg4 mi
1:00 PM70 °FScattered clouds.9 mph38%30.07 "Hg3 mi
12:00 PM70 °FScattered clouds.8 mph38%30.09 "Hg2 mi
11:30 AM66 °FScattered clouds.9 mph43%30.09 "Hg2 mi
11:00 AM66 °FScattered clouds.9 mph46%30.09 "Hg2 mi
10:00 AM63 °FScattered clouds.10 mph52%30.09 "Hg1 mi
9:30 AM61 °FHaze.10 mph52%30.09 "Hg1 mi
9:00 AM59 °FHaze.10 mph55%30.09 "Hg1 mi
8:30 AM57 °FHaze.9 mph59%30.09 "Hg1 mi
8:00 AM57 °FHaze.8 mph59%30.09 "Hg1 mi
7:30 AM55 °FHaze.7 mph63%30.07 "Hg1 mi
7:00 AM54 °FHaze.6 mph67%30.07 "Hg1 mi
6:00 AM52 °FHaze.6 mph72%30.07 "Hg1 mi
5:30 AM52 °FHaze.5 mph72%30.04 "Hg1 mi
5:00 AM52 °FHaze.5 mph72%30.04 "Hg1 mi
4:00 AM52 °FHaze.5 mph72%30.04 "Hg1 mi
3:00 AM55 °FHaze.5 mph63%30.04 "Hg1 mi
2:00 AM55 °FHaze.3 mph63%30.07 "Hg1 mi
Weather by CustomWeather, © 2014

See weather overviewHow to use our weather pages